PulseSat

PulseSat

COSMOS 2522 (752)

Last updated on Jan. 18, 2019, 3 a.m. UTC

1 42939U 17055A   19016.92358648  .00000005  00000-0  00000+0 0  9991
2 42939  64.5696 284.9704 0007564 256.8451  22.4552  2.13102035 10268
UTC
Height (km)
Latitude
Longitude
Inclination
Orbital Period

Next 30 passes for location: Hong Kong

Rise time Rise Azimuth (degrees) Set time Set Azimuth (degrees) Duration Max altitude (degrees)

No matching passes for this satellites

PulseSat

PulseSat is the new satellites software and hardware trackering solution by Pulsely.
Satellite Two Line Element Set source: US Air Force Space Command

Download PulseSat for iOS
© 2017 Pulsely Limited